Location: Cucq
(50.4773°N, 1.6202°E)
Time: 23:10:29
(UTC+00:00)

FALCON 9 DEB - Pass Details

Date: 07 August 2020
Orbit: 427 x 441 km, 53.0° (Epoch: 23 September)

Event Time Altitude Azimuth Distance (km) Brightness Sun altitude
Rises 03:23:39 0° 290° (WNW) 2,432 6.6 -9.6°
Reaches altitude 10° 03:25:52 10° 282° (WNW) 1,557 5.6 -9.4°
Maximum altitude 03:29:09 38° 213° (SSW) 687 3.7 -9.0°
Drops below altitude 10° 03:32:23 10° 144° (SE) 1,543 5.9 -8.6°
Sets 03:34:34 0° 136° (SE) 2,405 7.0 -8.3°
